Other Public Products
Issued by NWS Charleston, SC

Current Version | Previous Version | Text Only | Print | Product List | Glossary Off
Versions: 1 2 3 4 5 6 7 8 9 10 11 12 13 14 15 16 17 18 19 20 21 22 23 24 25 26 27 28 29 30 31 32 33 34 35 36 37 38 39 40 41 42 43 44 45 46 47 48 49 50

000
FPUS82 KCHS 241627
OPUCHS

TEST...KCHS/KSAV Gateway Observations...TEST
National Weather Service Charleston SC
1200 PM EDT MON JUL 24 2017

NOTE: "fair" indicates few or no clouds below 12,000 feet with no
significant weather and/or obstructions to visibility.

SCZ050-WAZ558-NCZ071-TXZ119-213-PAZ071-DCZ001-FLZ074-172-MI076-
NYZ176-178-MAZ016-IL014-TNZ027-NJZ106-GAZ044-MD014-241700-

...Gateway Observations for Charleston International...

CITY           SKY/WX    TMP DP  RH WIND       PRES   REMARKS
Chas Airport   CLOUDY    78  74  87 W14       29.98F
Seattle        MOSUNNY   66  53  63 N14       30.06S
Charlotte      CLOUDY    86  70  58 SW5       29.98S HX  90
Dallas DFW     CLOUDY    81  74  79 S5        30.00R
Dallas Love    CLOUDY    80  72  76 VRB5      30.01R
Philladelphia  PTSUNNY   82  68  62 N10       29.78R
Wash National  MOSUNNY   86  69  56 N12       29.83S HX  90
Baltimore      MOSUNNY   85  69  58 W8        29.82R
Miami          MOSUNNY   92  75  57 E10       30.10S HX 103
Detroit        CLOUDY    69  57  65 NW13      29.95R
Newark         LGT RAIN  68  64  87 N17G25    29.79R
Laguardia      LGT RAIN  64  61  90 NE18      29.79R
J F K          LGT RAIN  65  64  97 N21G30    29.77S
Boston Logan   RAIN      59  56  89 E18       29.92F FOG
Ft. Lauderdale MOSUNNY   89  77  67 SE6       30.09S HX 101
Chicago O`Hare CLOUDY    71  57  61 NE15      30.03R
Chicago Midway CLOUDY    71  60  68 N15       30.02R
Houston Bush   CLOUDY    89  75  63 SW9       30.02R HX  99
Houston Hobby  CLOUDY    89  74  60 S9        30.01R HX  98
Nashville      PTSUNNY   85  70  60 SE3       29.98S
Atlanta        MOSUNNY   86  74  67 NW5       30.00S HX  94

$$

GAZ044-118-TXZ119-213-NCZ071-DCZ001-MDZ014-506-PAZ021-071-NJZ106-
NYZ176-178-MAZ106-OHZ011-021-055-MIZ076-KYZ091-ILZ014-INZ047-
MNZ060-ONZ431-241700-

...Gateway Observations for Savannah International...

CITY           SKY/WX    TMP DP  RH WIND       PRES   REMARKS
Savannah Arpt  CLOUDY    86  74  67 SW8       30.00F HX  94
Atlanta        MOSUNNY   86  74  67 NW5       30.00S HX  94
Charlotte      CLOUDY    86  70  58 SW5       29.98S HX  90
Dallas DFW     CLOUDY    81  74  79 S5        30.00R
Houston Bush   CLOUDY    89  75  63 SW9       30.02R HX  99
Wash National  MOSUNNY   86  69  56 N12       29.83S HX  90
Wash Dulles    MOSUNNY   84  66  54 NW13      29.84S
Baltimore      MOSUNNY   85  69  58 W8        29.82R
Philadelphia   PTSUNNY   82  68  62 N10       29.78R
Newark         LGT RAIN  68  64  87 N17G25    29.79R
Laguardia      LGT RAIN  64  61  90 NE18      29.79R
J F K          LGT RAIN  65  64  97 N21G30    29.77S
Boston         RAIN      59  56  89 E18       29.92F FOG
Pittsburg      LGT RAIN  74  68  81 SW6       29.87F
Akron          PTSUNNY   77  64  64 NW10      29.89S
Cleveland      CLOUDY    72  62  71 N14       29.93R
Cincinnati     MOSUNNY   82  71  69 NW9       29.94R
Columbus       SUNNY     78  67  69 NW9       29.91R
Detroit        CLOUDY    69  57  65 NW13      29.95R
Chicago O`Hare CLOUDY    71  57  61 NE15      30.03R
Minneapolis    MOSUNNY   71  58  63 SE5       30.07S
Indianapolis   MOSUNNY   78  67  68 NW9       29.96S
Toronto Canada NOT AVBL

$$




USA.gov is the U.S. government's official web portal to all federal, state and local government web resources and services.